EW8494 Weather Reports


Display with metric or nautical units.
time (UTC)temp
F
wind
direction
speed
MPH
gust
MPH
rain 1hr
in
rain 24hr
in
rain mn
in
humidity
%
barometer
mb
20260505123131 56 23 3.0 5.0 0.00 0.00 0.00 58
20260505122111 55 23 4.0 10.0 0.00 0.00 0.00 58
20260505121111 55 23 4.0 7.0 0.00 0.00 0.00 60
20260505120110 55 23 4.0 9.0 0.00 0.00 0.00 61
20260505115109 55 0 4.0 8.0 0.00 0.00 0.00 61
20260505114111 57 23 3.0 7.0 0.00 0.00 0.00 59
20260505113110 57 23 3.0 5.0 0.00 0.00 0.00 57
20260505112109 57 23 3.0 7.0 0.00 0.00 0.00 58
20260505111109 58 23 3.0 4.0 0.00 0.00 0.00 58
20260505110109 59 45 1.0 2.0 0.00 0.00 0.00 55
20260505102107 58 0 3.0 5.0 0.00 0.00 0.00 61
20260505101106 60 23 2.0 5.0 0.00 0.00 0.00 58
20260505100107 60 23 1.0 3.0 0.00 0.00 0.00 58
20260505095106 60 0.0 0.0 0.00 0.00 0.00 58
20260505094106 61 0.0 2.0 0.00 0.00 0.00 56
20260505093105 61 0.0 0.0 0.00 0.00 0.00 55
20260505092105 61 0.0 0.0 0.00 0.00 0.00 58
20260505091146 61 0.0 0.0 0.00 0.00 0.00 57
20260505090106 62 0.0 0.0 0.00 0.00 0.00 56
20260505085124 62 0.0 0.0 0.00 0.00 0.00 57
20260505084104 63 0.0 0.0 0.00 0.00 0.00 57
20260505083103 64 0.0 0.0 0.00 0.00 0.00 55
20260505082103 64 0.0 0.0 0.00 0.00 0.00 51
20260505081104 65 0.0 0.0 0.00 0.00 0.00 52
20260505080103 65 0.0 0.0 0.00 0.00 0.00 51
20260505075103 65 0.0 3.0 0.00 0.00 0.00 48
20260505074123 65 0.0 0.0 0.00 0.00 0.00 51
20260505073101 66 0.0 0.0 0.00 0.00 0.00 49
20260505072102 67 0.0 0.0 0.00 0.00 0.00 46
20260505071103 67 0.0 0.0 0.00 0.00 0.00 46
20260505065100 66 45 2.0 5.0 0.00 0.00 0.00 48
20260505064101 64 23 3.0 4.0 0.00 0.00 0.00 53
20260505063121 64 0 4.0 6.0 0.00 0.00 0.00 48
20260505062140 65 23 2.0 4.0 0.00 0.00 0.00 46
20260505061101 66 23 2.0 4.0 0.00 0.00 0.00 45
20260505060100 67 0 3.0 5.0 0.00 0.00 0.00 43
20260505055059 66 45 3.0 5.0 0.00 0.00 0.00 49
20260505054059 66 45 2.0 3.0 0.00 0.00 0.00 48
20260505053059 68 45 2.0 8.0 0.00 0.00 0.00 43
20260505052100 66 338 4.0 6.0 0.00 0.00 0.00 40
20260505051058 67 23 2.0 3.0 0.00 0.00 0.00 44
20260505041057 71 0 2.0 3.0 0.00 0.00 0.00 41
20260505040056 71 0 3.0 4.0 0.00 0.00 0.00 37
20260505035057 72 0 3.0 4.0 0.00 0.00 0.00 35
20260505034056 72 0 3.0 5.0 0.00 0.00 0.00 33
20260505033057 72 0 2.0 3.0 0.00 0.00 0.00 34
20260505032055 73 0 3.0 4.0 0.00 0.00 0.00 35
20260505031056 73 23 3.0 4.0 0.00 0.00 0.00 36
20260505030056 73 23 2.0 3.0 0.00 0.00 0.00 36
20260505025055 75 23 2.0 3.0 0.00 0.00 0.00 36
20260505024053 78 23 2.0 3.0 0.00 0.00 0.00 33
20260505023054 81 45 1.0 3.0 0.00 0.00 0.00 29
20260505022053 83 0.0 0.0 0.00 0.00 0.00 25
20260505021056 85 0.0 0.0 0.00 0.00 0.00 23
20260505020053 86 45 1.0 2.0 0.00 0.00 0.00 20
20260505015052 87 23 2.0 3.0 0.00 0.00 0.00 17
20260505014053 87 23 1.0 3.0 0.00 0.00 0.00 17
20260505013055 87 23 2.0 5.0 0.00 0.00 0.00 15
20260505012052 88 23 3.0 5.0 0.00 0.00 0.00 13
20260505011112 88 23 3.0 5.0 0.00 0.00 0.00 12
20260505010052 88 23 4.0 7.0 0.00 0.00 0.00 10
20260505005112 88 23 4.0 9.0 0.00 0.00 0.00 10
20260505004112 89 23 5.0 10.0 0.00 0.00 0.00 11
20260505003053 89 23 5.0 12.0 0.00 0.00 0.00 7
20260505002053 89 23 6.0 10.0 0.00 0.00 0.00 10
20260505001052 89 23 4.0 10.0 0.00 0.00 0.00 9
20260505000052 88 23 6.0 11.0 0.00 0.00 0.00 11
20260504235051 87 338 5.0 15.0 0.00 0.00 0.00 14
20260504234052 87 180 1.0 4.0 0.00 0.00 0.00 15
20260504233049 87 158 1.0 3.0 0.00 0.00 0.00 15
20260504232050 87 158 2.0 5.0 0.00 0.00 0.00 16
20260504231049 88 203 2.0 5.0 0.00 0.00 0.00 14
20260504230051 88 135 1.0 3.0 0.00 0.00 0.00 17
20260504225110 88 113 1.0 3.0 0.00 0.00 0.00 17
20260504224050 88 135 1.0 3.0 0.00 0.00 0.00 18
20260504223049 88 248 1.0 3.0 0.00 0.00 0.00 13
20260504222049 88 315 3.0 5.0 0.00 0.00 0.00 17
20260504221050 88 338 1.0 3.0 0.00 0.00 0.00 13
20260504220048 87 23 2.0 5.0 0.00 0.00 0.00 13
20260504215128 87 315 1.0 4.0 0.00 0.00 0.00 13
20260504214108 87 225 2.0 7.0 0.00 0.00 0.00 18
20260504213047 87 338 2.0 6.0 0.00 0.00 0.00 15
20260504212107 86 23 3.0 8.0 0.00 0.00 0.00 17
20260504211048 87 23 2.0 6.0 0.00 0.00 0.00 13
20260504210047 86 23 3.0 5.0 0.00 0.00 0.00 13
20260504205046 87 45 3.0 5.0 0.00 0.00 0.00 16
20260504204046 86 45 3.0 4.0 0.00 0.00 0.00 17
20260504203106 85 45 4.0 13.0 0.00 0.00 0.00 16
20260504202045 85 0 4.0 10.0 0.00 0.00 0.00 17
20260504201045 85 45 4.0 9.0 0.00 0.00 0.00 18
20260504200045 84 23 4.0 9.0 0.00 0.00 0.00 20
20260504195044 83 23 5.0 12.0 0.00 0.00 0.00 20
20260504194045 83 23 4.0 11.0 0.00 0.00 0.00 20
20260504193045 82 23 4.0 8.0 0.00 0.00 0.00 20
20260504192045 82 45 4.0 8.0 0.00 0.00 0.00 19
20260504191104 82 23 4.0 10.0 0.00 0.00 0.00 21
20260504190043 82 338 5.0 8.0 0.00 0.00 0.00 19
20260504185044 81 45 5.0 11.0 0.00 0.00 0.00 18
20260504184103 81 0 6.0 11.0 0.00 0.00 0.00 21
20260504183043 81 338 6.0 10.0 0.00 0.00 0.00 19
20260504182042 81 0 6.0 11.0 0.00 0.00 0.00 19
20260504181043 79 338 5.0 9.0 0.00 0.00 0.00 21
20260504180043 79 338 4.0 9.0 0.00 0.00 0.00 23
20260504175041 78 338 5.0 9.0 0.00 0.00 0.00 23
20260504174041 79 0 6.0 13.0 0.00 0.00 0.00 20
20260504173101 78 0 5.0 9.0 0.00 0.00 0.00 19
20260504172041 78 0 5.0 9.0 0.00 0.00 0.00 19
20260504171040 77 338 6.0 9.0 0.00 0.00 0.00 23
20260504151037 67 113 1.0 3.0 0.00 0.00 0.00 43 1007.5
20260504141034 59 0.0 0.0 0.00 0.00 0.00 53 1007.2